EAG5508 LIMJ-LFKJ

Flight info

Callsign EAG5508
Flight time 0h 52m
Altitude 17000
Route UNITA DCT TORTU
Aircraft AT76/M-SDFGIRY/S

Departure

Time 2026-04-21 18:52
Airport Genoa Cristoforo Colombo Airport (LIMJ)

Arrival

Time 2026-04-21 19:44
Airport Ajaccio Napoléon Bonaparte airport (LFKJ)
Time Latitude Longitude Altitude Speed Heading
2026-04-21 17:56 44.41271 8.85076 17 ft 0 kts 194°
2026-04-21 18:45 44.41275 8.85077 16 ft 3 kts 194°
2026-04-21 18:45 44.41301 8.85084 16 ft 4 kts 179°
2026-04-21 18:45 44.41325 8.85077 20 ft 4 kts 138°
2026-04-21 18:46 44.41333 8.85063 17 ft 0 kts 106°
2026-04-21 18:48 44.41333 8.85064 18 ft 2 kts 106°
2026-04-21 18:48 44.41318 8.85141 16 ft 13 kts 105°
2026-04-21 18:48 44.41289 8.85255 16 ft 12 kts 127°
2026-04-21 18:48 44.41218 8.85276 16 ft 11 kts 190°
2026-04-21 18:49 44.41148 8.85251 18 ft 10 kts 198°
2026-04-21 18:49 44.41099 8.85232 16 ft 0 kts 194°
2026-04-21 18:49 44.41098 8.85231 16 ft 1 kts 194°
2026-04-21 18:49 44.41028 8.85191 15 ft 13 kts 213°
2026-04-21 18:50 44.41012 8.85126 13 ft 0 kts 283°
2026-04-21 18:51 44.41012 8.85123 14 ft 6 kts 283°
2026-04-21 18:51 44.41075 8.84800 16 ft 63 kts 284°
2026-04-21 18:51 44.41240 8.83957 17 ft 115 kts 286°
2026-04-21 18:52 44.41482 8.82716 116 ft 143 kts 284°
2026-04-21 18:52 44.41745 8.81319 418 ft 156 kts 282°
2026-04-21 18:52 44.42003 8.79846 843 ft 158 kts 283°
2026-04-21 18:52 44.42288 8.78360 1309 ft 158 kts 282°
2026-04-21 18:53 44.42115 8.76900 1749 ft 157 kts 232°
2026-04-21 18:53 44.41162 8.76272 2177 ft 158 kts 177°
2026-04-21 18:53 44.40134 8.76785 2593 ft 159 kts 154°
2026-04-21 18:53 44.39136 8.77468 3038 ft 160 kts 153°
2026-04-21 18:54 44.38146 8.78201 3500 ft 161 kts 151°
2026-04-21 18:54 44.37158 8.78952 3958 ft 162 kts 151°
2026-04-21 18:54 44.36165 8.79704 4432 ft 162 kts 152°
2026-04-21 18:54 44.35099 8.79995 4720 ft 163 kts 195°
2026-04-21 18:55 44.33974 8.79507 4788 ft 179 kts 197°
2026-04-21 18:55 44.32726 8.79109 4940 ft 187 kts 187°
2026-04-21 18:55 44.31427 8.79033 5192 ft 187 kts 181°
2026-04-21 18:55 44.30121 8.79034 5468 ft 188 kts 180°
2026-04-21 18:56 44.28845 8.79354 5732 ft 188 kts 155°
2026-04-21 18:56 44.27659 8.80143 5952 ft 190 kts 154°
2026-04-21 18:56 44.26523 8.81094 6195 ft 191 kts 148°
2026-04-21 18:56 44.25417 8.82094 6437 ft 193 kts 149°
2026-04-21 18:57 44.24268 8.83069 6680 ft 194 kts 152°
2026-04-21 18:57 44.23076 8.83960 6903 ft 195 kts 155°
2026-04-21 18:57 44.21851 8.84781 7141 ft 196 kts 157°
2026-04-21 18:57 44.20610 8.85572 7375 ft 197 kts 158°
2026-04-21 18:58 44.19362 8.86375 7603 ft 198 kts 158°
2026-04-21 18:58 44.18108 8.87188 7829 ft 200 kts 157°
2026-04-21 18:58 44.16844 8.88011 8056 ft 201 kts 158°
2026-04-21 18:58 44.15574 8.88838 8287 ft 202 kts 158°
2026-04-21 18:59 44.14294 8.89668 8513 ft 204 kts 158°
2026-04-21 18:59 44.13023 8.90495 8735 ft 205 kts 158°
2026-04-21 18:59 44.11728 8.91337 8956 ft 206 kts 158°
2026-04-21 18:59 44.10424 8.92182 9178 ft 207 kts 158°
2026-04-21 19:00 44.09112 8.93034 9398 ft 209 kts 158°
2026-04-21 19:00 44.07792 8.93888 9615 ft 210 kts 158°
2026-04-21 19:00 44.06464 8.94749 9829 ft 211 kts 158°
2026-04-21 19:00 44.05127 8.95614 10026 ft 212 kts 159°
2026-04-21 19:01 44.03783 8.96482 10220 ft 214 kts 159°
2026-04-21 19:01 44.02433 8.97356 10408 ft 215 kts 159°
2026-04-21 19:01 44.01076 8.98233 10589 ft 216 kts 159°
2026-04-21 19:01 43.99729 8.99104 10770 ft 217 kts 159°
2026-04-21 19:02 43.98355 8.99993 10943 ft 218 kts 159°
2026-04-21 19:02 43.96956 9.00891 10998 ft 226 kts 159°
2026-04-21 19:02 43.95507 9.01819 11052 ft 232 kts 159°
2026-04-21 19:02 43.93992 9.02438 11122 ft 225 kts 182°
2026-04-21 19:03 43.92431 9.02397 11252 ft 224 kts 190°
2026-04-21 19:03 43.90883 9.02181 11393 ft 224 kts 192°
2026-04-21 19:03 43.89335 9.01929 11537 ft 224 kts 192°
2026-04-21 19:03 43.87784 9.01685 11678 ft 225 kts 192°
2026-04-21 19:04 43.86224 9.01463 11821 ft 226 kts 191°
2026-04-21 19:04 43.84678 9.01267 11975 ft 226 kts 191°
2026-04-21 19:04 43.83098 9.01070 12067 ft 229 kts 191°
2026-04-21 19:04 43.81505 9.00876 12205 ft 230 kts 191°
2026-04-21 19:05 43.79907 9.00684 12346 ft 231 kts 191°
2026-04-21 19:05 43.78305 9.00491 12482 ft 231 kts 191°
2026-04-21 19:05 43.76700 9.00300 12619 ft 232 kts 192°
2026-04-21 19:05 43.75088 9.00106 12754 ft 233 kts 192°
2026-04-21 19:06 43.73473 8.99912 12894 ft 233 kts 192°
2026-04-21 19:06 43.71857 8.99718 13049 ft 234 kts 192°
2026-04-21 19:06 43.70233 8.99522 13204 ft 235 kts 192°
2026-04-21 19:06 43.68603 8.99325 13360 ft 235 kts 192°
2026-04-21 19:07 43.66989 8.99128 13504 ft 236 kts 192°
2026-04-21 19:07 43.65350 8.98929 13652 ft 237 kts 192°
2026-04-21 19:07 43.63704 8.98734 13792 ft 238 kts 192°
2026-04-21 19:07 43.62051 8.98538 13919 ft 238 kts 192°
2026-04-21 19:08 43.60396 8.98338 14039 ft 239 kts 192°
2026-04-21 19:08 43.58740 8.98139 14167 ft 239 kts 192°
2026-04-21 19:08 43.57078 8.97938 14295 ft 240 kts 192°
2026-04-21 19:08 43.55412 8.97738 14418 ft 240 kts 192°
2026-04-21 19:09 43.53745 8.97538 14542 ft 241 kts 192°
2026-04-21 19:09 43.52074 8.97339 14658 ft 241 kts 193°
2026-04-21 19:09 43.50396 8.97139 14767 ft 242 kts 193°
2026-04-21 19:09 43.48738 8.96942 14879 ft 243 kts 192°
2026-04-21 19:10 43.47053 8.96751 14981 ft 243 kts 192°
2026-04-21 19:10 43.45452 8.96260 15042 ft 231 kts 212°
2026-04-21 19:10 43.43999 8.95385 15319 ft 223 kts 212°
2026-04-21 19:10 43.42582 8.94600 15579 ft 219 kts 210°
2026-04-21 19:11 43.41136 8.93905 15729 ft 221 kts 207°
2026-04-21 19:11 43.39666 8.93273 15872 ft 222 kts 206°
2026-04-21 19:11 43.38187 8.92660 16009 ft 222 kts 206°
2026-04-21 19:11 43.36707 8.92042 16140 ft 223 kts 206°
2026-04-21 19:12 43.35224 8.91417 16274 ft 223 kts 207°
2026-04-21 19:12 43.33759 8.90748 16385 ft 219 kts 214°
2026-04-21 19:12 43.32426 8.89786 16515 ft 215 kts 220°
2026-04-21 19:12 43.31216 8.88665 16646 ft 212 kts 226°
2026-04-21 19:13 43.30044 8.87454 16794 ft 210 kts 227°
2026-04-21 19:13 43.28885 8.86217 16879 ft 212 kts 228°
2026-04-21 19:13 43.27719 8.84945 16900 ft 216 kts 228°
2026-04-21 19:13 43.26541 8.83639 16925 ft 220 kts 228°
2026-04-21 19:14 43.25346 8.82300 16930 ft 224 kts 229°
2026-04-21 19:14 43.24125 8.80943 16940 ft 229 kts 224°
2026-04-21 19:14 43.22583 8.80156 16947 ft 246 kts 199°
2026-04-21 19:14 43.20875 8.79798 16942 ft 251 kts 196°
2026-04-21 19:15 43.19156 8.79494 16942 ft 254 kts 195°
2026-04-21 19:15 43.17388 8.79207 16936 ft 257 kts 195°
2026-04-21 19:15 43.15607 8.78929 16941 ft 259 kts 194°
2026-04-21 19:15 43.13808 8.78654 16938 ft 261 kts 194°
2026-04-21 19:16 43.12001 8.78379 16940 ft 262 kts 194°
2026-04-21 19:16 43.10184 8.78103 16941 ft 263 kts 194°
2026-04-21 19:16 43.08377 8.77763 16936 ft 260 kts 199°
2026-04-21 19:16 43.06616 8.77214 16940 ft 260 kts 201°
2026-04-21 19:17 43.03100 8.76116 16943 ft 262 kts 199°
2026-04-21 19:17 43.01305 8.75638 16940 ft 263 kts 199°
2026-04-21 19:17 42.99506 8.75164 16940 ft 263 kts 199°
2026-04-21 19:18 42.97706 8.74686 16942 ft 264 kts 199°
2026-04-21 19:18 42.95903 8.74209 16934 ft 264 kts 199°
2026-04-21 19:18 42.94101 8.73730 16943 ft 264 kts 199°
2026-04-21 19:18 42.92293 8.73253 16937 ft 264 kts 199°
2026-04-21 19:19 42.90486 8.72774 16938 ft 265 kts 199°
2026-04-21 19:19 42.88679 8.72295 16926 ft 265 kts 198°
2026-04-21 19:19 42.86870 8.71819 16933 ft 264 kts 198°
2026-04-21 19:19 42.85089 8.71348 16930 ft 264 kts 198°
2026-04-21 19:20 42.83284 8.70873 16930 ft 264 kts 198°
2026-04-21 19:20 42.81480 8.70396 16932 ft 264 kts 198°
2026-04-21 19:20 42.79675 8.69921 16934 ft 264 kts 198°
2026-04-21 19:20 42.77867 8.69443 16935 ft 264 kts 198°
2026-04-21 19:21 42.76062 8.68967 16937 ft 265 kts 198°
2026-04-21 19:21 42.74254 8.68492 16936 ft 264 kts 198°
2026-04-21 19:21 42.72448 8.68016 16936 ft 264 kts 198°
2026-04-21 19:21 42.70642 8.67543 16937 ft 265 kts 198°
2026-04-21 19:22 42.68835 8.67066 16922 ft 265 kts 198°
2026-04-21 19:22 42.67026 8.66593 16931 ft 264 kts 198°
2026-04-21 19:22 42.65221 8.66118 16934 ft 264 kts 198°
2026-04-21 19:22 42.63417 8.65644 16936 ft 265 kts 198°
2026-04-21 19:23 42.61633 8.65177 16937 ft 265 kts 198°
2026-04-21 19:23 42.59826 8.64702 16938 ft 265 kts 198°
2026-04-21 19:23 42.58016 8.64229 16937 ft 265 kts 198°
2026-04-21 19:23 42.56206 8.63754 16937 ft 265 kts 198°
2026-04-21 19:24 42.54396 8.63283 16938 ft 265 kts 198°
2026-04-21 19:24 42.52586 8.62809 16938 ft 265 kts 198°
2026-04-21 19:24 42.50775 8.62336 16938 ft 265 kts 198°
2026-04-21 19:24 42.48965 8.61863 16938 ft 265 kts 198°
2026-04-21 19:25 42.47155 8.61389 16936 ft 265 kts 198°
2026-04-21 19:25 42.45343 8.60918 16937 ft 265 kts 198°
2026-04-21 19:25 42.43531 8.60444 16937 ft 265 kts 198°
2026-04-21 19:25 42.41720 8.59974 16936 ft 265 kts 198°
2026-04-21 19:26 42.39931 8.59508 16936 ft 265 kts 198°
2026-04-21 19:26 42.38121 8.59035 16936 ft 265 kts 198°
2026-04-21 19:26 42.36308 8.58566 16946 ft 265 kts 198°
2026-04-21 19:26 42.34494 8.58093 16917 ft 265 kts 197°
2026-04-21 19:27 42.32685 8.57628 16934 ft 264 kts 198°
2026-04-21 19:27 42.30883 8.57159 16938 ft 264 kts 198°
2026-04-21 19:27 42.29077 8.56688 16927 ft 264 kts 198°
2026-04-21 19:27 42.27261 8.56216 16757 ft 271 kts 197°
2026-04-21 19:28 42.25366 8.55725 16380 ft 284 kts 197°
2026-04-21 19:28 42.23403 8.55217 16003 ft 289 kts 197°
2026-04-21 19:28 42.21421 8.54706 15629 ft 291 kts 197°
2026-04-21 19:28 42.19452 8.54197 15264 ft 293 kts 197°
2026-04-21 19:29 42.17446 8.53680 14896 ft 294 kts 197°
2026-04-21 19:29 42.15433 8.53160 14535 ft 295 kts 197°
2026-04-21 19:29 42.13414 8.52638 14178 ft 296 kts 197°
2026-04-21 19:29 42.11390 8.52117 13826 ft 296 kts 197°
2026-04-21 19:30 42.09366 8.51593 13442 ft 296 kts 197°
2026-04-21 19:30 42.07340 8.51071 13037 ft 296 kts 196°
2026-04-21 19:30 42.05321 8.50556 12646 ft 295 kts 196°
2026-04-21 19:30 42.03313 8.50038 12265 ft 293 kts 196°
2026-04-21 19:31 42.01314 8.49525 11886 ft 292 kts 196°
2026-04-21 19:31 41.99325 8.49012 11509 ft 291 kts 196°
2026-04-21 19:31 41.97341 8.48501 11087 ft 291 kts 196°
2026-04-21 19:31 41.95352 8.47994 10624 ft 291 kts 196°
2026-04-21 19:32 41.93388 8.47490 10175 ft 291 kts 195°
2026-04-21 19:32 41.91402 8.46981 9716 ft 291 kts 195°
2026-04-21 19:32 41.89415 8.46472 9213 ft 290 kts 195°
2026-04-21 19:32 41.87443 8.45969 8818 ft 286 kts 195°
2026-04-21 19:33 41.86160 8.45640 8612 ft 281 kts 195°
2026-04-21 19:33 41.83643 8.44999 8184 ft 269 kts 195°
2026-04-21 19:33 41.81827 8.44536 7858 ft 263 kts 195°
2026-04-21 19:33 41.80051 8.44080 7519 ft 258 kts 195°
2026-04-21 19:34 41.78302 8.43636 7183 ft 254 kts 195°
2026-04-21 19:34 41.76604 8.43202 6857 ft 250 kts 195°
2026-04-21 19:34 41.74900 8.42769 6527 ft 248 kts 194°
2026-04-21 19:34 41.73216 8.42340 6191 ft 245 kts 194°
2026-04-21 19:35 41.71546 8.41914 5857 ft 243 kts 194°
2026-04-21 19:35 41.68245 8.41077 5174 ft 240 kts 193°
2026-04-21 19:35 41.66602 8.40874 4808 ft 240 kts 173°
2026-04-21 19:36 41.65082 8.41819 4417 ft 244 kts 144°
2026-04-21 19:36 41.63853 8.43379 4121 ft 243 kts 132°
2026-04-21 19:36 41.62888 8.45160 3905 ft 237 kts 122°
2026-04-21 19:36 41.62441 8.47254 3636 ft 234 kts 86°
2026-04-21 19:37 41.62760 8.49308 3444 ft 226 kts 72°
2026-04-21 19:37 41.63331 8.51242 3257 ft 222 kts 62°
2026-04-21 19:37 41.64100 8.53010 3071 ft 218 kts 54°
2026-04-21 19:37 41.64965 8.54661 2921 ft 215 kts 52°
2026-04-21 19:38 41.65856 8.56269 2881 ft 216 kts 51°
2026-04-21 19:38 41.66752 8.57881 2868 ft 216 kts 52°
2026-04-21 19:38 41.67339 8.58954 2856 ft 216 kts 53°
2026-04-21 19:38 41.68498 8.61144 2850 ft 215 kts 54°
2026-04-21 19:39 41.69355 8.62783 2849 ft 215 kts 54°
2026-04-21 19:39 41.70209 8.64419 2852 ft 214 kts 54°
2026-04-21 19:39 41.71060 8.66049 2876 ft 213 kts 54°
2026-04-21 19:39 41.71964 8.67583 2916 ft 207 kts 37°
2026-04-21 19:40 41.73180 8.68496 2935 ft 203 kts 23°
2026-04-21 19:40 41.74473 8.69256 2939 ft 203 kts 21°
2026-04-21 19:40 41.75777 8.69999 2959 ft 204 kts 21°
2026-04-21 19:40 41.77079 8.70746 2952 ft 201 kts 22°
2026-04-21 19:41 41.78351 8.71496 2913 ft 199 kts 23°
2026-04-21 19:41 41.79603 8.72312 2780 ft 201 kts 27°
2026-04-21 19:41 41.80818 8.73149 2583 ft 187 kts 25°
2026-04-21 19:41 41.81940 8.73840 2410 ft 169 kts 22°
2026-04-21 19:42 41.82948 8.74422 2335 ft 151 kts 22°
2026-04-21 19:42 41.83911 8.74983 2064 ft 152 kts 24°
2026-04-21 19:42 41.84853 8.75580 1733 ft 151 kts 24°
2026-04-21 19:42 41.85812 8.76124 1408 ft 147 kts 24°
2026-04-21 19:43 41.86712 8.76702 1109 ft 143 kts 27°
2026-04-21 19:43 41.87572 8.77299 855 ft 136 kts 26°
2026-04-21 19:43 41.88408 8.77771 720 ft 121 kts 24°
2026-04-21 19:43 41.89164 8.78222 559 ft 118 kts 26°
2026-04-21 19:44 41.89901 8.78708 361 ft 118 kts 27°
2026-04-21 19:44 41.90637 8.79151 192 ft 113 kts 26°
2026-04-21 19:44 41.91337 8.79587 36 ft 108 kts 25°
2026-04-21 19:44 41.91894 8.79937 15 ft 49 kts 24°
2026-04-21 19:45 41.92093 8.80062 17 ft 21 kts 25°
2026-04-21 19:45 41.92208 8.80133 16 ft 15 kts 25°
2026-04-21 19:45 41.92260 8.80123 18 ft 7 kts 321°
2026-04-21 19:45 41.92277 8.80069 18 ft 7 kts 276°
2026-04-21 19:46 41.92281 8.80002 20 ft 7 kts 275°
2026-04-21 19:46 41.92285 8.79943 22 ft 5 kts 275°
2026-04-21 19:46 41.92289 8.79893 23 ft 7 kts 277°
2026-04-21 19:46 41.92287 8.79833 23 ft 3 kts 233°
2026-04-21 19:47 41.92253 8.79822 23 ft 0 kts 200°
2026-04-21 19:48 41.92210 8.79801 23 ft 16 kts 202°
2026-04-21 19:48 41.92109 8.79738 24 ft 16 kts 205°
2026-04-21 19:48 41.92012 8.79678 24 ft 15 kts 205°
2026-04-21 19:48 41.91936 8.79631 23 ft 5 kts 210°
2026-04-21 19:49 41.91937 8.79590 23 ft 4 kts 292°
2026-04-21 19:49 41.91950 8.79579 23 ft 1 kts 342°
2026-04-21 19:49 41.91953 8.79578 23 ft 0 kts 343°